Starlink 3672

operational
NORAD ID: 51974 Int'l Des: 2022-025 Owner: SPXS Country: US Constellation: starlink
LEOCIRCULARSTARLINK_TYPE

关于 Starlink 3672

正在加载描述...

实时位置

正在加载3D地球...

即将过境

高度历史

Altitude vs Time

uPlot chart will show altitude changes over time

两行轨道根数

1 51974U 22025U 25351.54570825 .00005076 00000-0 35930-3 0 9990
2 51974 53.0542 39.6431 0001492 86.8231 273.2928 15.06414677208539
Epoch: Dec 17, 2025 • Age: 17 hours

当前状态

高度 549.0 km
速度 7.59 km/s
星下点 -5.53°S, 153.64°W
发射日期 Mar 9, 2022
运行时间 3.7 years
类型 internet

技术详情

分类 Payload
质量 297.00 kg
干质量 275.00 kg
总质量 297.00 kg
长度 0.20 m
直径 2.80 m
跨度 9.00 m
形状 Box + pan
制造商 SPXS
平台类型 Starlink
阶段状态 In Orbit
所有者/国家 SPXS/US

大型星座

Loading constellations...